This is the latest recevied weather packets stored in our database for station/object AE6DC-5. If no packets are shown the sender has not sent any weather packets the latest 10 day(s).
| Time | Temp. | Humidity | Pressure | Rain* | Wind** | Luminosity | Snow |
|---|---|---|---|---|---|---|---|
| 1777181420 | 11.67° C | 90% | 1011.2 hPa | 0 mm | - | 0 W/m² | - |
| 1777180340 | 12.22° C | 88% | 1011.2 hPa | 0 mm | - | 0 W/m² | - |
| 1777178541 | 12.78° C | 85% | 1010.9 hPa | 0 mm | - | 0 W/m² | - |
| 1777176031 | 13.33° C | 81% | 1010.9 hPa | 0 mm | - | 0 W/m² | - |
| 1777173879 | 12.78° C | 81% | 1010.7 hPa | 0 mm | - | 0 W/m² | - |
| 1777173499 | 13.33° C | 81% | 1010.6 hPa | 0 mm | - | 0 W/m² | - |
| 1777170977 | 13.33° C | 79% | 1010.3 hPa | 0 mm | - | 11 W/m² | - |
| 1777170257 | 13.33° C | 79% | 1010.5 hPa | 0 mm | - | 18 W/m² | - |
| 1777169540 | 12.78° C | 80% | 1010.4 hPa | 0 mm | - | 25 W/m² | - |
| 1777166667 | 13.33° C | 79% | 1010.5 hPa | 0 mm | - | 136 W/m² | - |
| 1777165939 | 13.33° C | 79% | 1010.7 hPa | 0 mm | - | 82 W/m² | - |
| 1777164139 | 13.33° C | 80% | 1010.7 hPa | 0 mm | - | 123 W/m² | - |
| 1777154779 | 13.33° C | 79% | 1011.6 hPa | 0 mm | - | 308 W/m² | - |
| 1777154419 | 13.33° C | 78% | 1011.5 hPa | 0 mm | - | 308 W/m² | - |
| 1777153699 | 12.78° C | 79% | 1011.4 hPa | 0 mm | - | 398 W/m² | - |
| 1777153359 | 12.78° C | 79% | 1011.6 hPa | 0 mm | - | 330 W/m² | - |
| 1777151540 | 12.78° C | 82% | 1011.4 hPa | 0 mm | - | 391 W/m² | - |
| 1777148661 | 12.78° C | 79% | 1011.6 hPa | 0 mm | - | 261 W/m² | - |
| 1777147579 | 12.78° C | 79% | 1011.9 hPa | 0 mm | - | 148 W/m² | - |
| 1777144697 | 12.78° C | 79% | 1011.9 hPa | 0 mm | - | 219 W/m² | - |
| 1777141460 | 12.78° C | 79% | 1012 hPa | 0 mm | - | 217 W/m² | - |
| 1777135338 | 12.78° C | 79% | 1011.9 hPa | 0 mm | - | 88 W/m² | - |
| 1777134619 | 12.78° C | 81% | 1011.9 hPa | 0 mm | - | 113 W/m² | - |
| 1777129940 | 12.78° C | 80% | 1011.9 hPa | 0 mm | - | 55 W/m² | - |
| 1777129580 | 12.78° C | 80% | 1011.8 hPa | 0 mm | - | 44 W/m² | - |
* Rain latest hour (hover to see other rain measurements)
** Current wind speed in m/s (hover to see current wind gust speed)